Theta_e
326 319 318 319 320 319 319 320 323 321 323 322 322 324 326 325 325 325 324 325 325 323
324 325 321 323 319 316 315 314 315 316 318 318 319 319 320 321 322 323 322 322 324 324
320 320 320 319 315 314 314 314 313 313 314 315 315 316 318 317 320 320 322 321 320 323
314 315 314 314 314 314 314 313 312 312 312 313 313 313 314 315 316 316 318 320 318 318
314 313 311 312 312 312 311 313 312 311 311 311 311 312 312 313 314 314 314 318 317 317
309 310 309 310 311 311 310 309 310 310 310 309 310 310 311 311 312 313 314 316 315 316
305 306 307 307 307 307 308 308 308 308 309 309 309 309 310 310 311 310 310 311 313 314
303 304 304 305 305 306 306 306 306 307 307 308 307 306 308 309 309 308 307 309 310 310
302 302 303 303 303 304 304 305 305 304 305 304 305 304 305 307 307 308 306 306 308 310
301 301 302 302 303 302 302 304 304 304 303 303 304 302 302 304 306 305 306 307 308 309
301 301 302 302 302 303 303 303 303 303 303 303 304 302 301 302 305 306 307 308 308 308
301 301 301 301 302 304 304 304 303 303 303 302 304 302 300 301 305 304 305 307 308 308
302 302 302 303 303 304 305 304 303 303 303 303 304 302 300 301 304 304 304 306 308 304
304 304 305 305 305 305 303 303 302 302 303 303 304 304 300 298 304 304 303 303 303 305
Wind_Speed
6 7 7 9 8 8 9 8 8 9 8 8 10 9 7 8 11 8 8 9 5 4
8 6 5 4 3 4 7 8 9 9 9 9 12 13 12 8 11 13 12 12 8 6
7 8 5 4 4 5 6 6 8 9 10 11 11 12 12 10 10 14 12 11 11 8
9 8 9 9 8 8 9 10 10 11 12 13 13 11 11 12 12 14 16 15 14 12
12 9 9 10 9 8 9 10 11 12 13 13 12 12 12 11 12 14 16 17 16 15
15 14 12 12 10 10 11 11 11 12 12 13 13 12 11 11 6 6 9 8 4 5
16 15 14 13 12 12 12 11 10 12 12 13 11 11 13 10 7 5 2 6 3 3
15 14 14 14 13 13 13 11 12 12 11 12 8 10 11 9 6 7 5 5 7 5
15 14 14 14 13 12 13 13 11 12 12 12 9 13 12 10 7 8 10 8 8 6
14 14 14 14 13 13 13 11 12 11 11 12 12 13 13 12 8 8 7 8 8 7
13 14 13 13 13 13 11 12 11 10 10 11 10 14 14 14 10 8 9 8 7 8
13 13 13 13 13 12 11 10 9 9 10 11 12 13 14 11 8 9 10 9 8 8
14 12 12 12 12 10 8 9 8 10 10 12 12 10 12 12 7 8 7 7 9 8
12 11 11 9 8 7 7 8 9 10 9 10 10 8 8 12 8 7 7 7 6 6
Wind_Direction
257 265 264 273 283 308 306 311 312 307 326 331 319 300 272 268 265 249 238 243 244 261
259 265 276 315 41 346 313 317 318 321 301 309 313 300 285 276 267 256 242 232 230 226
321 322 6 336 320 293 280 279 289 291 290 291 289 284 291 280 265 267 254 235 227 226
315 327 320 310 301 299 293 284 285 285 288 282 274 275 277 280 279 268 263 244 231 236
310 316 300 294 304 300 290 285 284 279 278 285 282 283 269 280 281 274 266 247 227 227
324 317 309 302 298 297 291 284 282 279 271 274 279 278 268 262 279 308 307 238 259 247
304 300 302 303 301 295 284 279 278 276 270 271 281 295 272 273 251 259 281 303 295 271
294 293 292 288 288 286 280 277 276 275 275 274 277 278 282 259 250 241 221 265 268 264
290 291 289 288 283 283 279 269 265 265 265 264 266 274 282 274 270 243 233 215 236 251
289 287 285 285 280 277 275 273 268 262 261 258 259 253 256 255 254 253 255 240 218 213
291 286 284 284 281 275 274 268 266 263 259 257 258 245 249 251 249 244 245 242 234 203
294 289 285 283 281 275 273 268 262 257 261 260 261 235 239 230 240 239 236 234 223 223
290 286 283 281 278 282 275 271 271 267 255 254 265 255 227 222 229 227 234 238 224 213
295 291 288 293 290 289 281 276 272 266 265 253 256 269 241 203 216 222 219 222 221 227